Regional Weather Roundup
Issued by NWS Upton, NY

Current Version | Previous Version | Graphics & Text | Print | Product List | Glossary Off
Versions: 1 2 3 4 5 6 7 8 9 10 11 12 13 14 15 16 17 18 19 20 21 22 23 24 25 26 27 28 29 30 31 32 33 34 35 36 37 38 39 40 41 42 43 44 45 46 47 48 49 50

000
ASUS41 KOKX 242207
RWROKX

REGIONAL WEATHER ROUNDUP
NATIONAL WEATHER SERVICE NEW YORK NY
600 PM EDT FRI APR 24 2015

NOTE: "FAIR" INDICATES FEW OR NO CLOUDS BELOW 12,000 FEET WITH NO
SIGNIFICANT WEATHER AND/OR OBSTRUCTIONS TO VISIBILITY.

NYZ071-072-176-178-NJZ106-104-242300-
NEW YORK CITY METRO AREA


CITY           SKY/WX    TMP DP  RH WIND       PRES   REMARKS
CENTRAL PARK   SUNNY     49  17  28 N8G20     29.89R
LAGUARDIA APRT MOSUNNY   48  20  32 NW25G33   29.86R
KENNEDY INTL   MOSUNNY   50  17  27 NW22G32   29.86R
NEWARK/LIBERTY MOSUNNY   51  18  27 NW23G31   29.86R
BRNX BOT. GARD   N/A     46  19  34 NW16      29.87F
TETERBORO      SUNNY     48  19  31 NW20G31   29.86R
$$

NYZ177-179-078>081-242300-
LONG ISLAND NEW YORK

CITY           SKY/WX    TMP DP  RH WIND       PRES   REMARKS
FARMINGDALE    SUNNY     47  18  31 NW21G31   29.85R
ISLIP          PTSUNNY   47  21  35 W22G32    29.83R
SHIRLEY        CLOUDY    47  22  37 NW15G26   29.85R
WESTHAMPTON    CLOUDY    45  21  38 NW14G30   29.84R
MONTAUK POINT    N/A     46  28  49 NW10      29.81R
$$

NYZ052-065-067-242300-
HUDSON VALLEY

CITY           SKY/WX    TMP DP  RH WIND       PRES   REMARKS
WHITE PLAINS   PTSUNNY   42  20  41 NW18G25   29.85R
NEWBURGH       PTSUNNY   41  27  56 NW18G31   29.89R
MONTGOMERY     CLOUDY    42  24  49 NW12G22   29.88R
POUGHKEEPSIE   CLOUDY    44  22  41 NW10G16   29.88R
ALBANY         CLOUDY    40  19  43 W18       29.87R WCI  31
$$

NJZ001-105-106-008-010-013-015-019>022-104-242300-
NEW JERSEY

CITY           SKY/WX    TMP DP  RH WIND       PRES   REMARKS
NEWARK/LIBERTY MOSUNNY   51  18  27 NW23G31   29.86R
TETERBORO      SUNNY     48  19  31 NW20G31   29.86R
CALDWELL       SUNNY     47  18  31 N14G22    29.88R
MORRISTOWN     MOSUNNY   50  19  29 N20G26    29.87R
SOMERVILLE     SUNNY     53  14  21 NW16G24   29.83R
SUSSEX         MOSUNNY   45  19  35 NW14G22   29.90R
ANDOVER          N/A     45  20  36 N10G20    29.87R
TRENTON        SUNNY     54  13  19 NW13G21   29.84R
MILLVILLE      SUNNY     55  17  22 NW18G29   29.87F
ATLANTIC CITY  MOSUNNY   54  18  24 W21G29    29.86S
WRIGHTSTOWN    MOSUNNY   54  17  23 NW12G21   29.82S
TOMS RIVER     MOSUNNY   54  16  22 NW15G28   29.84F
BELMAR         MOSUNNY   54  18  24 NW15G22   29.84S
$$

PAZ047>061-062-071-242300-
EASTERN PENNSYLVANIA

CITY           SKY/WX    TMP DP  RH WIND       PRES   REMARKS
PHILADELPHIA   MOSUNNY   56  14  19 NW18G29   29.87S
ALLENTOWN      SUNNY     54  13  19 NW18G25   29.84S
SCRANTON       SUNNY     46  20  35 N20G25    29.88R
$$

CTZ002-004>006-009-010-012-RIZ004-006-007-MAZ004-011-015-242300-
SOUTHERN NEW ENGLAND
 IN CT

CITY           SKY/WX    TMP DP  RH WIND       PRES   REMARKS
BRADLEY INTL   PTSUNNY   44  19  36 NW16G25   29.82R
HARTFORD       CLOUDY    43  18  36 NW12G25   29.84R
DANBURY        CLOUDY    41  18  39 NW15G24   29.86R
WTRBRY/OXFORD  CLOUDY    39  18  41 N9G23     29.84R WCI  33
BRIDGEPORT     CLOUDY    45  20  36 NW17G28   29.84R
MERIDEN        PTSUNNY   44  16  32 NW15G33   29.83R
NEW HAVEN      PTSUNNY   44  21  40 NW14G25   29.83R
CHESTER        CLOUDY    43  21  42 NW12G24   29.81R
GROTON         CLOUDY    45  19  35 NW20G28   29.79R
WILLIMANTIC    CLOUDY    44  20  38 NW15G23   29.80R

 IN RI

CITY           SKY/WX    TMP DP  RH WIND       PRES   REMARKS
PROVIDENCE     PTSUNNY   47  21  35 NW14G23   29.75R
BLOCK ISLAND   CLOUDY    45  25  45 NW16G22   29.78R
WESTERLY       CLOUDY    45  21  38 W12G23    29.79R

 IN MA

CITY           SKY/WX    TMP DP  RH WIND       PRES   REMARKS
BOSTON         PTSUNNY   48  22  35 W16G29    29.73R
WORCESTER      CLOUDY    40  20  44 NW20G25   29.74R WCI  30
WESTFIELD      CLOUDY    42  20  41 W20G26    29.82R
PROVINCETOWN   SUNNY    N/A N/A N/A NW15      29.70S
NANTUCKET      SUNNY     47  31  53 W17G26    29.71S
$$

ANZ330-335-338-340-345-350-353-355-242300-
COASTAL MARINE OBSERVATIONS


STATION/POSITION TIME  SKY/WX   TEMP    WIND        PRES    VSBY  WAVE
                                AIR SEA DIR/SP/G                  HT/PER
                 (UTC)          (F)     (DEG/KT/KT) (MB)    (MI)  (FT/S)
NY HARB ENTRANCE 2150            47 45  340/ 14/ 17 1010.2          2/12
4S FIRE IS       2103               44                N/A           3/ 4
20S FIRE ISLAND  2150            44 43  340/ 14/ 16 1010.6          2/ 4
23SW MTP         NOT AVBL
HUDSON CANYON    NOT AVBL
EXECUTION ROCKS  NOT AVBL
WESTERN LI SOUND NOT AVBL
CENTRAL LI SOUND NOT AVBL
EASTERN LI SOUND 2100            44     310/ 17/ 25   N/A
ROBBINS REEF     2100            49     320/ 13/ 18 1009.1
$$


>>>>>>>>>>>>>>>>>>>>>>>>>>>> KEY <<<<<<<<<<<<<<<<<<<<<<<<<<<
>                                                          <
>     SKY/WX - SKY CONDITION/PRESENT WEATHER               <
>     TMP    - TEMPERATURE IN FAHRENHEIT                   <
>     DP     - DEWPOINT IN FAHRENHEIT                      <
>     RH     - RELATIVE HUMIDITY IN PERCENT                <
>     WIND   - DIRECTION AND SPEED IN MPH                  <
>     PRES   - MEAN SEA LEVEL PRESSURE IN INCHES OF HG     <
>     WCI    - WIND CHILL INDEX                            <
>     VSB    - VISIBILITY IN MILES                         <
>     HX     - HEAT INDEX                                  <
>     TC     - TEMPERATURE IN CELSIUS                      <
>     VRB    - VARIABLE WIND DIRECTION                     <
>                                                          <
>>>>>>>>>>>>>>>>>>>>>>>>>>>> KEY <<<<<<<<<<<<<<<<<<<<<<<<<<<




USA.gov is the U.S. government's official web portal to all federal, state and local government web resources and services.